Central Valley One Loft Race - Toss 2

Station: Tengner Rd - T Race

Distance: 1 Miles

Release: 01-Aug-2020 07:00

Weather Release:    Arrival:

Wind at Release:     Wind at Arrival:

Temp at Release: °    Temp at Arrival: °

Lofts: 93

Birds: 376

Clocked: 377

Good Luck to Everyone!
Drops Pos Breeder Pigeon Name Color Sex Ent Arrival Speed To Win Elg PdAOC
1 Guero Capilla Loft - CA 16118-AU20-JEDD BC C 1 08:22:16.50 21.392 00:00:00 Yes
2 Liang Loft - CA 0701-AU20-ARPU BB C 1 08:24:06.10 20.927 00:01:50 Yes
3 Josjim Loft - CA 20080-AU20-LAKE RC H 1 08:24:21.60 20.863 00:02:05 Yes
4 Bieche-Stevenson - CA 0189-AU20-BIEC BC C 1 08:24:22.00 20.861 00:02:06 Yes
5 Josjim Loft - CA 20100-AU20-LAKE BC C 2 08:24:22.40 20.860 00:02:06 Yes
6 Fco Avalos Loft - CA 1509-AU20-TULE BC C 1 08:24:25.00 20.849 00:02:09 Yes
7 Paredes Loft - CA 16167-AU20-JEDD BB H 1 08:24:25.30 20.848 00:02:09 Yes
8 Joe Jauhal - CA 0145-AU20-JEDD BC C 1 08:24:25.70 20.846 00:02:09 Yes
8 Texas Holiday Derby - TX 0730-AU20-NSL 507-681 x 4324 BBSP C 1 08:24:25.80 20.846 00:02:09 Yes
10 Joe Jauhal - CA 0108-AU20-JEDD BCSP H 2 08:24:26.20 20.844 00:02:10 Yes
10 Bieche-Stevenson - CA 0104-AU20-BIEC BC C 2 08:24:26.20 20.844 00:02:10 Yes
12 Balderas Lof - CA 3605-AU20-CHP BC C 1 08:24:26.80 20.842 00:02:10 Yes
12 Blue Sky Loft 2 - CA 0082-AU20-BLUE BB C 1 08:24:26.80 20.842 00:02:10 Yes
14 Aceves-Cbc - CA 5609-AU20-AA BB H 1 08:24:26.90 20.841 00:02:11 Yes
15 Texas Holiday Derby - TX 0719-AU20-NSL 1767 x 5985 BLK H 2 08:24:27.30 20.840 00:02:11 Yes
15 Sparks Trio Syn 2 - NV 0100-AU20-RENO BB C 1 08:24:27.30 20.840 00:02:11 Yes
17 Liang Loft - CA 0709-AU20-ARPU BC C 2 08:24:27.40 20.839 00:02:11 Yes
18 Machos Loft - NV 1931-AU20-MACH BC C 1 08:24:27.70 20.838 00:02:11 Yes
19 Watts Racing - CA 2671-AU20-VITA Wolfman Jack BB C 1 08:24:27.80 20.837 00:02:11 Yes
19 Mexicubas Loft - CO 0018-AU20-CHEC BC H 1 08:24:27.80 20.837 00:02:11 Yes
21 Mexicubas Loft - CO 3035-AU20-HRPB BB C 2 08:24:28.20 20.836 00:02:12 Yes
21 Machos Loft - NV 1940-AU20-MACH BBSP H 2 08:24:28.20 20.836 00:02:12 Yes
23 Oddballs - CA 2225-AU20-FVC BCSP C 1 08:24:28.90 20.833 00:02:12 Yes
24 Gomez & Martin Loft - CA 3021-AU20-FORT BC H 1 08:24:29.30 20.831 00:02:13 Yes
25 Bako Boy's - CA 0328-AU20-BAK BC H 1 08:24:29.60 20.830 00:02:13 Yes
26 Sparks Trio Syn 2 - NV 0315-AU20-RENO BLK C 2 08:24:30.10 20.828 00:02:14 Yes
26 Alvigar Loft - CA 17832-AU20-JEDD POTE BB C 1 08:24:30.10 20.828 00:02:14 Yes
26 Her Loft - CA 0601-AU20-CCU Thanos BB C 1 08:24:30.20 20.828 00:02:14 Yes
29 S & S - CA 0049-AU20-SS C 1 08:24:30.50 20.826 00:02:14 Yes
29 Iron 377 - CA 0603-AU20-WSJ BB H 1 08:24:30.50 20.826 00:02:14 Yes
31 Palomar Lucio - CA 16105-AU20-JEDD BB H 1 08:24:30.90 20.825 00:02:14 Yes
32 Garlic City - CA 2490-AU20-WSJ BB C 1 08:24:31.00 20.824 00:02:15 Yes
33 Armando Lopez Loft - CA 3979-AU20-CHP BCWF H 1 08:24:31.70 20.821 00:02:15 Yes
34 Valdez & Rodriguez - CA 0263-AU20-CCU BC H 1 08:24:32.30 20.819 00:02:16 Yes
34 Texas Holiday Derby - TX 0702-AU20-NSL 928 x 626 BB H 3 08:24:32.30 20.819 00:02:16 Yes
36 Alvigar Loft - CA 17836-AU20-JEDD TERE BB C 2 08:24:32.60 20.818 00:02:16 Yes
36 Fernando Loft - CA 0366-AU20-CCU BBSP C 1 08:24:32.60 20.818 00:02:16 Yes
38 Gomez & Martin Loft - CA 3020-AU20-FORT BB C 2 08:24:32.70 20.817 00:02:16 Yes
39 Gold Star Loft - CA 1707-AU20-STON BB H 1 08:24:33.10 20.816 00:02:17 Yes
39 H Padilla & Beto Martin Loft - CA 0716-AU20-MTZ BC C 1 08:24:33.10 20.816 00:02:17 Yes
41 Sky Charger Loft 2 - CA 16948-AU20-JEDD BB H 1 08:24:33.50 20.814 00:02:17 Yes
41 Oddballs - CA 2201-AU20-FVC BB C 2 08:24:33.50 20.814 00:02:17 Yes
41 Liang Loft - CA 0715-AU20-ARPU RC H 3 08:24:33.50 20.814 00:02:17 Yes
44 Ganzo Loft - CA 16200-AU20-JEDD BBSP H 1 08:24:34.00 20.812 00:02:18 Yes
44 Joe Jauhal - CA 0111-AU20-JEDD BC H 3 08:24:34.10 20.812 00:02:18 Yes
46 Armando Lopez Loft - CA 4000-AU20-CHP BC C 2 08:24:34.40 20.810 00:02:18 Yes
47 Pablo Larios & Rafael Reyes - CA 2823-AU20-FORT DC C 1 08:24:34.80 20.809 00:02:18 Yes
48 Watts Racing - CA 2672-AU20-VITA Honey Buns BC H 2 08:24:35.30 20.807 00:02:19 Yes
49 John Karnofel - CA 0212-AU20-KFL Carmel Valley Dream BCSP H 1 08:24:35.70 20.805 00:02:19 Yes
50 Balderas Lof - CA 3602-AU20-CHP BB C 2 08:24:36.00 20.804 00:02:20 Yes
51 Padis Tanus Loft - CA 29854-AU20-JEDD BB C 1 08:24:36.10 20.803 00:02:20 Yes
51 Hernandes Loft - CA 28207-AU20-JEDD SL H 1 08:24:36.10 20.803 00:02:20 Yes
51 Machos Loft - NV 1930-AU20-MACH BC H 3 08:24:36.10 20.803 00:02:20 Yes
54 Osty Loft - CA 5598-AU20-FOYS GRIZ C 1 08:24:36.70 20.801 00:02:20 Yes
54 Joe Jauhal - CA 0119-AU20-JEDD SL C 4 08:24:36.70 20.801 00:02:20 Yes
54 Pellizzari Loft - CA 1018-AU20-WSJ DC H 1 08:24:36.70 20.801 00:02:20 Yes
54 Pablo Larios & Rafael Reyes - CA 2527-AU20-FORT BB H 2 08:24:36.80 20.801 00:02:20 Yes
54 Leovis Loft - CA 103857-MX20-FMC BC H 1 08:24:36.80 20.801 00:02:20 Yes
59 America Loft - IN 0420-AU20-AMER 420. 93 sandoval BB H 1 08:24:37.20 20.799 00:02:21 Yes
60 Iron 377 - CA 0610-AU20-WSJ BB H 2 08:24:37.70 20.797 00:02:21 Yes
61 Bako Boy's - CA 0218-AU20-BAK RB C 2 08:24:38.00 20.796 00:02:21 Yes
62 Pablo Larios & Rafael Reyes - CA 2855-AU20-FORT BB C 3 08:24:38.50 20.794 00:02:22 Yes
63 Chop Loft - CA 16101-AU20-JEDD GRIZ C 1 08:24:38.80 20.792 00:02:22 Yes
64 Vaz Loft - CA 0386-AU20-SEL BBSP H 1 08:24:39.30 20.790 00:02:23 Yes
65 Luiz Flores Family Loft - NV 0025-AU20-MUER BB H 1 08:24:39.80 20.788 00:02:23 Yes
66 Sooner Challenge - OK 40122-AU20-ARPU 7276 x 8546 BB C 1 08:24:40.10 20.787 00:02:24 Yes
67 Whiskey Hollow Loft - TX 0003-AU20-WACO BC H 1 08:24:40.60 20.785 00:02:24 Yes
67 Holts Loft - NC 11678-AU20-AA BBWF H 1 08:24:40.60 20.785 00:02:24 Yes
69 Samuel Gomez - CA 0246-AU20-WSJ BC C 1 08:24:40.90 20.784 00:02:24 Yes
70 House Of Paine - CA 0235-AU20-HOUS BB H 1 08:24:41.00 20.783 00:02:25 Yes
71 America Loft - IN 0496-AU20-AMER 9108 95 BB H 2 08:24:41.50 20.781 00:02:25 Yes
71 Ismael Franco - CA 0304-AU20-BPRC BB H 1 08:24:41.50 20.781 00:02:25 Yes
73 Sparks Trio Syn 2 - NV 0332-AU20-RENO DC H 3 08:24:42.10 20.779 00:02:26 Yes
74 Iron 377 - CA 0604-AU20-WSJ BB H 3 08:24:42.40 20.778 00:02:26 Yes
75 Alvigar Loft - CA 17838-AU20-JEDD JAMES BB C 3 08:24:42.50 20.777 00:02:26 Yes
76 Iron 377 - CA 0860-AU20-WSJ BLK H 4 08:24:42.90 20.776 00:02:26 Yes
77 Valdez & Rodriguez - CA 0266-AU20-CCU BC H 2 08:24:43.20 20.774 00:02:27 Yes
78 H Padilla & Beto Martin Loft - CA 0707-AU20-MTZ DC C 2 08:24:43.60 20.773 00:02:27 Yes
79 John Karnofel - CA 0211-AU20-KFL Salinas Sweetheart BBWF H 2 08:24:44.00 20.771 00:02:28 Yes
80 Hernandes Loft - CA 28214-AU20-JEDD BB C 2 08:24:44.50 20.769 00:02:28 Yes
80 Jose Reyes Loft - CA 16161-AU20-JEDD BCWF C 1 08:24:44.50 20.769 00:02:28 Yes
82 Balderas Lof - CA 3603-AU20-CHP BBSP C 3 08:24:45.40 20.765 00:02:29 Yes
82 Leovis Loft - CA 103869-MX20-FMC BC H 2 08:24:45.40 20.765 00:02:29 Yes
84 Juan Rivas Loft - CA 3087-AU20-CHP BC C 1 08:24:45.90 20.763 00:02:30 Yes
84 Pablo Larios & Rafael Reyes - CA 2854-AU20-FORT BBSP H 4 08:24:46.00 20.763 00:02:30 Yes
86 Hernandes Loft - CA 28206-AU20-JEDD BB H 3 08:24:46.70 20.760 00:02:30 Yes
87 Ganzo Loft - CA 16104-AU20-JEDD RCSP H 2 08:24:47.80 20.756 00:02:31 Yes
88 Nevarez Loft - CA 0217-AU20-NEVA BBWF H 1 08:24:48.10 20.754 00:02:32 Yes
89 Loft Ramx4 - CA 17109-AU20-AA Ades BC C 1 08:24:48.50 20.753 00:02:32 Yes
90 Bieche-Stevenson - CA 0205-AU20-BIEC BB H 3 08:24:48.60 20.752 00:02:32 Yes
91 House Of Paine - CA 0207-AU20-HOUS BBWF C 2 08:24:48.90 20.751 00:02:32 Yes
91 Kereru Whare - CA 1140-AU20-FORT RB C 1 08:24:48.90 20.751 00:02:32 Yes
93 Joe Jauhal - CA 0125-AU20-JEDD DC H 5 08:24:49.70 20.748 00:02:33 Yes
94 Michael Kelly - CA 4107-AU20-ARC Little Dehessa BC H 1 08:24:50.40 20.745 00:02:34 Yes
95 Capistrano Loft - FL 13403-AU20-ARPU Mukuro BB C 1 08:24:51.70 20.740 00:02:35 Yes
96 Liang Loft - CA 0702-AU20-ARPU BB H 4 08:24:52.20 20.738 00:02:36 Yes
97 Peter Krieg - CA 3280-AU20-CHP BC H 1 08:24:52.50 20.736 00:02:36 Yes
98 Balderas Lof - CA 3601-AU20-CHP GRIZ H 4 08:24:52.90 20.735 00:02:36 Yes
99 Black Vargas Loft - CA 3292-AU20-VITA DC C 1 08:24:53.60 20.732 00:02:37 Yes
99 Nevarez Loft - CA 0222-AU20-NEVA BB H 2 08:24:53.60 20.732 00:02:37 Yes

There are 427 bird records

Note: These Race Results are unofficial and subject to change until verified by the Race Committee and declared final.